Time,TemperatureF,DewpointF,PressureIn,WindDirection,WindDirectionDegrees,WindSpeedMPH,WindSpeedGustMPH,Humidity,HourlyPrecipIn,Conditions,Clouds,dailyrainin,SoftwareType,DateUTC
2013-04-20 00:01:00,40.7,10.8,30.14,WSW,248,4.7,9.4,29,0.00,,,0.00,WUHU216HW,2013-04-20 07:01:00,
2013-04-20 00:06:00,41.4,11.4,30.14,WSW,248,9.4,9.4,29,0.00,,,0.00,WUHU216HW,2013-04-20 07:06:00,
2013-04-20 00:11:00,41.8,11.7,30.14,WSW,248,6.9,9.4,29,0.00,,,0.00,WUHU216HW,2013-04-20 07:11:00,
2013-04-20 00:16:00,41.8,11.7,30.14,SSW,203,7.6,9.4,29,0.00,,,0.00,WUHU216HW,2013-04-20 07:16:00,
2013-04-20 00:21:00,41.8,11.7,30.14,SSW,203,4.3,8.1,29,0.00,,,0.00,WUHU216HW,2013-04-20 07:21:00,
2013-04-20 00:26:00,41.8,11.7,30.14,WSW,248,5.1,8.1,29,0.00,,,0.00,WUHU216HW,2013-04-20 07:26:00,
2013-04-20 00:31:00,41.9,11.9,30.14,SSW,203,5.1,11.0,29,0.00,,,0.00,WUHU216HW,2013-04-20 07:31:00,
2013-04-20 00:36:00,42.1,12.1,30.13,WSW,248,5.6,11.0,29,0.00,,,0.00,WUHU216HW,2013-04-20 07:36:00,
2013-04-20 00:41:00,42.1,12.1,30.13,WSW,248,4.3,9.2,29,0.00,,,0.00,WUHU216HW,2013-04-20 07:41:00,
2013-04-20 00:46:00,42.1,12.1,30.13,SSW,203,5.1,9.2,29,0.00,,,0.00,WUHU216HW,2013-04-20 07:46:00,
2013-04-20 00:51:00,42.1,12.1,30.13,NW,315,4.0,9.2,29,0.00,,,0.00,WUHU216HW,2013-04-20 07:51:00,
2013-04-20 00:56:00,42.3,11.3,30.14,SW,225,4.0,9.2,28,0.00,,,0.00,WUHU216HW,2013-04-20 07:56:00,
2013-04-20 01:01:00,42.1,11.2,30.13,WSW,248,4.3,9.2,28,0.00,,,0.00,WUHU216HW,2013-04-20 08:01:00,
2013-04-20 01:06:00,42.1,12.1,30.14,SSW,203,4.7,9.2,29,0.00,,,0.00,WUHU216HW,2013-04-20 08:06:00,
2013-04-20 01:11:00,42.1,12.1,30.14,SW,225,6.3,10.5,29,0.00,,,0.00,WUHU216HW,2013-04-20 08:11:00,
2013-04-20 01:16:00,42.1,12.1,30.14,West,270,8.9,10.5,29,0.00,,,0.00,WUHU216HW,2013-04-20 08:16:00,
2013-04-20 01:21:00,42.1,12.1,30.14,WSW,248,5.8,11.6,29,0.00,,,0.00,WUHU216HW,2013-04-20 08:21:00,
2013-04-20 01:26:00,42.1,11.2,30.13,West,270,6.3,11.6,28,0.00,,,0.00,WUHU216HW,2013-04-20 08:26:00,
2013-04-20 01:31:00,42.1,12.1,30.13,WNW,293,2.2,9.2,29,0.00,,,0.00,WUHU216HW,2013-04-20 08:31:00,
2013-04-20 01:36:00,42.1,11.2,30.13,WNW,293,1.1,9.2,28,0.00,,,0.00,WUHU216HW,2013-04-20 08:36:00,
2013-04-20 01:41:00,41.9,11.9,30.13,NE,45,0.4,6.7,29,0.00,,,0.00,WUHU216HW,2013-04-20 08:41:00,
2013-04-20 01:46:00,41.6,11.6,30.13,NW,315,0.9,4.0,29,0.00,,,0.00,WUHU216HW,2013-04-20 08:46:00,
2013-04-20 01:51:00,41.2,11.4,30.13,WNW,293,1.6,3.1,29,0.00,,,0.00,WUHU216HW,2013-04-20 08:51:00,
2013-04-20 01:56:00,40.9,11.0,30.13,NW,315,1.8,3.1,29,0.00,,,0.00,WUHU216HW,2013-04-20 08:56:00,
2013-04-20 02:01:00,40.5,10.7,30.13,NNE,23,0.9,2.7,29,0.00,,,0.00,WUHU216HW,2013-04-20 09:01:00,
2013-04-20 02:06:00,40.3,10.5,30.13,WSW,248,3.4,3.4,29,0.00,,,0.00,WUHU216HW,2013-04-20 09:06:00,
2013-04-20 02:11:00,40.0,10.2,30.13,SW,225,2.5,3.4,29,0.00,,,0.00,WUHU216HW,2013-04-20 09:11:00,
2013-04-20 02:16:00,40.0,10.2,30.13,NW,315,1.8,3.4,29,0.00,,,0.00,WUHU216HW,2013-04-20 09:16:00,
2013-04-20 02:21:00,39.6,9.9,30.13,WSW,248,2.9,3.4,29,0.00,,,0.00,WUHU216HW,2013-04-20 09:21:00,
2013-04-20 02:26:00,39.4,10.6,30.13,West,270,4.0,6.0,30,0.00,,,0.00,WUHU216HW,2013-04-20 09:26:00,
2013-04-20 02:31:00,39.6,10.8,30.13,West,270,4.5,6.3,30,0.00,,,0.00,WUHU216HW,2013-04-20 09:31:00,
2013-04-20 02:36:00,39.8,10.9,30.13,WSW,248,5.4,7.8,30,0.00,,,0.00,WUHU216HW,2013-04-20 09:36:00,
2013-04-20 02:41:00,40.0,11.1,30.13,WSW,248,6.0,7.8,30,0.00,,,0.00,WUHU216HW,2013-04-20 09:41:00,
2013-04-20 02:46:00,40.0,11.1,30.13,SW,225,2.5,7.6,30,0.00,,,0.00,WUHU216HW,2013-04-20 09:46:00,
2013-04-20 02:51:00,40.0,11.1,30.13,SW,225,3.1,7.6,30,0.00,,,0.00,WUHU216HW,2013-04-20 09:51:00,
2013-04-20 02:56:00,40.0,11.1,30.13,WSW,248,5.6,7.6,30,0.00,,,0.00,WUHU216HW,2013-04-20 09:56:00,
2013-04-20 03:01:00,40.0,11.1,30.13,WSW,248,2.7,7.6,30,0.00,,,0.00,WUHU216HW,2013-04-20 10:01:00,
2013-04-20 03:06:00,39.8,10.9,30.13,South,180,2.5,6.0,30,0.00,,,0.00,WUHU216HW,2013-04-20 10:06:00,
2013-04-20 03:11:00,39.4,10.6,30.13,West,270,2.2,4.0,30,0.00,,,0.00,WUHU216HW,2013-04-20 10:11:00,
2013-04-20 03:16:00,39.2,10.4,30.13,South,180,2.5,4.7,30,0.00,,,0.00,WUHU216HW,2013-04-20 10:16:00,
2013-04-20 03:21:00,38.9,10.8,30.13,SSW,203,1.6,4.7,31,0.00,,,0.00,WUHU216HW,2013-04-20 10:21:00,
2013-04-20 03:26:00,38.7,10.6,30.13,SW,225,5.1,5.4,31,0.00,,,0.00,WUHU216HW,2013-04-20 10:26:00,
2013-04-20 03:31:00,38.5,11.1,30.13,WSW,248,4.7,7.8,32,0.00,,,0.00,WUHU216HW,2013-04-20 10:31:00,
2013-04-20 03:36:00,38.5,11.1,30.13,SSW,203,6.5,7.8,32,0.00,,,0.00,WUHU216HW,2013-04-20 10:36:00,
2013-04-20 03:41:00,38.7,11.3,30.13,SW,225,4.5,6.7,32,0.00,,,0.00,WUHU216HW,2013-04-20 10:41:00,
2013-04-20 03:46:00,38.7,11.3,30.13,SW,225,2.9,5.1,32,0.00,,,0.00,WUHU216HW,2013-04-20 10:46:00,
2013-04-20 03:51:00,38.5,11.1,30.13,SW,225,2.9,5.1,32,0.00,,,0.00,WUHU216HW,2013-04-20 10:51:00,
2013-04-20 03:56:00,38.3,10.9,30.13,SW,225,2.7,4.9,32,0.00,,,0.00,WUHU216HW,2013-04-20 10:56:00,
2013-04-20 04:01:00,38.0,10.6,30.14,South,180,2.2,4.3,32,0.00,,,0.00,WUHU216HW,2013-04-20 11:01:00,
2013-04-20 04:06:00,37.6,10.3,30.14,SSW,203,4.0,5.4,32,0.00,,,0.00,WUHU216HW,2013-04-20 11:06:00,
2013-04-20 04:11:00,37.3,10.0,30.14,WSW,248,3.1,5.4,32,0.00,,,0.00,WUHU216HW,2013-04-20 11:11:00,
2013-04-20 04:16:00,37.1,10.4,30.14,WSW,248,4.7,5.4,33,0.00,,,0.00,WUHU216HW,2013-04-20 11:16:00,
2013-04-20 04:21:00,37.1,10.4,30.14,South,180,2.9,5.4,33,0.00,,,0.00,WUHU216HW,2013-04-20 11:21:00,
2013-04-20 04:26:00,36.7,10.1,30.14,SSW,203,4.7,5.1,33,0.00,,,0.00,WUHU216HW,2013-04-20 11:26:00,
2013-04-20 04:31:00,36.5,10.0,30.14,SW,225,3.1,4.7,33,0.00,,,0.00,WUHU216HW,2013-04-20 11:31:00,
2013-04-20 04:36:00,36.2,9.6,30.14,SSW,203,2.5,4.7,33,0.00,,,0.00,WUHU216HW,2013-04-20 11:36:00,
2013-04-20 04:41:00,35.8,9.3,30.14,South,180,3.1,3.8,33,0.00,,,0.00,WUHU216HW,2013-04-20 11:41:00,
2013-04-20 04:46:00,35.5,9.6,30.14,SSW,203,1.3,3.6,34,0.00,,,0.00,WUHU216HW,2013-04-20 11:46:00,
2013-04-20 04:51:00,34.9,9.8,30.14,South,180,3.6,3.6,35,0.00,,,0.00,WUHU216HW,2013-04-20 11:51:00,
2013-04-20 04:56:00,34.4,9.4,30.14,SSE,158,2.5,4.7,35,0.00,,,0.00,WUHU216HW,2013-04-20 11:56:00,
2013-04-20 05:01:00,34.2,9.2,30.14,ESE,113,0.9,4.7,35,0.00,,,0.00,WUHU216HW,2013-04-20 12:01:00,
2013-04-20 05:06:00,33.7,9.4,30.14,SSE,158,1.1,2.9,36,0.00,,,0.00,WUHU216HW,2013-04-20 12:06:00,
2013-04-20 05:11:00,33.5,9.2,30.14,SE,135,2.0,3.1,36,0.00,,,0.00,WUHU216HW,2013-04-20 12:11:00,
2013-04-20 05:16:00,33.1,8.9,30.14,SSE,158,0.9,4.0,36,0.00,,,0.00,WUHU216HW,2013-04-20 12:16:00,
2013-04-20 05:21:00,32.8,9.2,30.14,SSE,158,1.3,4.0,37,0.00,,,0.00,WUHU216HW,2013-04-20 12:21:00,
2013-04-20 05:26:00,32.4,8.9,30.14,WSW,248,0.2,2.5,37,0.00,,,0.00,WUHU216HW,2013-04-20 12:26:00,
2013-04-20 05:31:00,32.0,8.6,30.14,SW,225,0.0,2.5,37,0.00,,,0.00,WUHU216HW,2013-04-20 12:31:00,
2013-04-20 05:36:00,31.9,8.4,30.14,SSW,203,0.7,1.1,37,0.00,,,0.00,WUHU216HW,2013-04-20 12:36:00,
2013-04-20 05:41:00,31.7,8.2,30.15,SSW,203,0.0,1.1,37,0.00,,,0.00,WUHU216HW,2013-04-20 12:41:00,
2013-04-20 05:46:00,31.5,8.1,30.14,South,180,1.1,2.5,37,0.00,,,0.00,WUHU216HW,2013-04-20 12:46:00,
2013-04-20 05:51:00,31.3,7.9,30.14,SSE,158,0.0,2.5,37,0.00,,,0.00,WUHU216HW,2013-04-20 12:51:00,
2013-04-20 05:56:00,31.1,7.7,30.14,SSE,158,0.4,2.5,37,0.00,,,0.00,WUHU216HW,2013-04-20 12:56:00,
2013-04-20 06:01:00,31.0,7.6,30.14,SSE,158,0.4,1.1,37,0.00,,,0.00,WUHU216HW,2013-04-20 13:01:00,
2013-04-20 06:06:00,30.8,8.0,30.15,SSE,158,1.3,1.3,38,0.00,,,0.00,WUHU216HW,2013-04-20 13:06:00,
2013-04-20 06:11:00,30.6,7.9,30.14,SSE,158,0.7,1.6,38,0.00,,,0.00,WUHU216HW,2013-04-20 13:11:00,
2013-04-20 06:16:00,30.6,7.9,30.14,NNW,338,0.2,1.6,38,0.00,,,0.00,WUHU216HW,2013-04-20 13:16:00,
2013-04-20 06:21:00,30.4,8.4,30.15,ESE,113,0.0,1.3,39,0.00,,,0.00,WUHU216HW,2013-04-20 13:21:00,
2013-04-20 06:26:00,30.6,8.6,30.14,ESE,113,0.0,0.2,39,0.00,,,0.00,WUHU216HW,2013-04-20 13:26:00,
2013-04-20 06:31:00,30.6,8.6,30.14,ESE,113,0.9,0.9,39,0.00,,,0.00,WUHU216HW,2013-04-20 13:31:00,
2013-04-20 06:36:00,31.0,8.8,30.14,South,180,0.7,2.0,39,0.00,,,0.00,WUHU216HW,2013-04-20 13:36:00,
2013-04-20 06:41:00,31.0,9.5,30.15,SSE,158,1.3,3.4,40,0.00,,,0.00,WUHU216HW,2013-04-20 13:41:00,
2013-04-20 06:46:00,31.0,9.5,30.15,ESE,113,1.8,3.4,40,0.00,,,0.00,WUHU216HW,2013-04-20 13:46:00,
2013-04-20 06:51:00,31.1,10.2,30.15,East,90,1.1,1.8,41,0.00,,,0.00,WUHU216HW,2013-04-20 13:51:00,
2013-04-20 06:56:00,31.5,10.4,30.15,NNW,338,0.7,1.8,41,0.00,,,0.00,WUHU216HW,2013-04-20 13:56:00,
2013-04-20 07:01:00,32.0,11.4,30.16,North,0,1.1,1.8,42,0.00,,,0.00,WUHU216HW,2013-04-20 14:01:00,
2013-04-20 07:06:00,32.6,12.0,30.16,North,0,0.0,1.6,42,0.00,,,0.00,WUHU216HW,2013-04-20 14:06:00,
2013-04-20 07:11:00,33.3,12.6,30.16,SW,225,0.4,1.1,42,0.00,,,0.00,WUHU216HW,2013-04-20 14:11:00,
2013-04-20 07:16:00,34.0,13.2,30.16,WSW,248,3.4,5.8,42,0.00,,,0.00,WUHU216HW,2013-04-20 14:16:00,
2013-04-20 07:21:00,35.6,14.8,30.16,WSW,248,5.6,5.8,42,0.00,,,0.00,WUHU216HW,2013-04-20 14:21:00,
2013-04-20 07:26:00,37.3,15.1,30.16,WSW,248,5.6,5.6,40,0.00,,,0.00,WUHU216HW,2013-04-20 14:26:00,
2013-04-20 07:31:00,38.9,15.3,30.16,NW,315,4.0,6.0,38,0.00,,,0.00,WUHU216HW,2013-04-20 14:31:00,
2013-04-20 07:36:00,40.1,15.8,30.16,WSW,248,1.8,6.9,37,0.00,,,0.00,WUHU216HW,2013-04-20 14:36:00,
2013-04-20 07:41:00,41.4,15.6,30.16,WSW,248,6.9,6.9,35,0.00,,,0.00,WUHU216HW,2013-04-20 14:41:00,
2013-04-20 07:46:00,42.7,15.4,30.16,WSW,248,4.0,6.9,33,0.00,,,0.00,WUHU216HW,2013-04-20 14:46:00,
2013-04-20 07:51:00,43.6,16.1,30.16,South,180,4.3,6.9,33,0.00,,,0.00,WUHU216HW,2013-04-20 14:51:00,
2013-04-20 07:56:00,44.3,16.8,30.16,SW,225,2.5,8.1,33,0.00,,,0.00,WUHU216HW,2013-04-20 14:56:00,
2013-04-20 08:01:00,45.2,16.9,30.17,WSW,248,4.9,8.1,32,0.00,,,0.00,WUHU216HW,2013-04-20 15:01:00,
2013-04-20 08:06:00,45.9,17.6,30.16,West,270,5.1,7.8,32,0.00,,,0.00,WUHU216HW,2013-04-20 15:06:00,
2013-04-20 08:11:00,46.8,17.7,30.16,West,270,3.4,5.8,31,0.00,,,0.00,WUHU216HW,2013-04-20 15:11:00,
2013-04-20 08:16:00,48.2,18.4,30.17,West,270,1.3,5.8,30,0.00,,,0.00,WUHU216HW,2013-04-20 15:16:00,
2013-04-20 08:21:00,49.3,18.3,30.16,WNW,293,1.8,4.0,29,0.00,,,0.00,WUHU216HW,2013-04-20 15:21:00,
2013-04-20 08:26:00,50.6,18.5,30.16,West,270,1.1,3.8,28,0.00,,,0.00,WUHU216HW,2013-04-20 15:26:00,
2013-04-20 08:31:00,51.7,19.4,30.16,WSW,248,2.0,4.7,28,0.00,,,0.00,WUHU216HW,2013-04-20 15:31:00,
2013-04-20 08:36:00,52.6,17.4,30.16,WNW,293,6.3,12.1,25,0.00,,,0.00,WUHU216HW,2013-04-20 15:36:00,
2013-04-20 08:41:00,53.8,18.5,30.16,NW,315,10.7,12.1,25,0.00,,,0.00,WUHU216HW,2013-04-20 15:41:00,
2013-04-20 08:46:00,55.1,17.7,30.16,West,270,5.6,10.7,23,0.00,,,0.00,WUHU216HW,2013-04-20 15:46:00,
2013-04-20 08:51:00,55.6,17.1,30.16,NW,315,6.9,10.7,22,0.00,,,0.00,WUHU216HW,2013-04-20 15:51:00,
2013-04-20 08:56:00,56.5,17.9,30.16,WNW,293,7.8,10.1,22,0.00,,,0.00,WUHU216HW,2013-04-20 15:56:00,
2013-04-20 09:01:00,57.1,17.4,30.16,NNW,338,6.5,10.5,21,0.00,,,0.00,WUHU216HW,2013-04-20 16:01:00,
2013-04-20 09:06:00,58.0,18.1,30.16,NW,315,4.3,10.5,21,0.00,,,0.00,WUHU216HW,2013-04-20 16:06:00,
2013-04-20 09:11:00,58.7,18.7,30.16,WSW,248,9.8,9.8,21,0.00,,,0.00,WUHU216HW,2013-04-20 16:11:00,
2013-04-20 09:16:00,59.0,19.0,30.16,NNW,338,7.4,10.5,21,0.00,,,0.00,WUHU216HW,2013-04-20 16:16:00,
2013-04-20 09:21:00,59.0,16.5,30.16,NNW,338,6.5,10.5,19,0.00,,,0.00,WUHU216HW,2013-04-20 16:21:00,
2013-04-20 09:26:00,59.4,19.3,30.16,NW,315,8.3,10.5,21,0.00,,,0.00,WUHU216HW,2013-04-20 16:26:00,
2013-04-20 09:31:00,60.1,19.9,30.16,NNW,338,0.9,10.5,21,0.00,,,0.00,WUHU216HW,2013-04-20 16:31:00,
2013-04-20 09:36:00,60.5,20.3,30.16,NNW,338,2.7,8.5,21,0.00,,,0.00,WUHU216HW,2013-04-20 16:36:00,
2013-04-20 09:41:00,61.2,20.9,30.16,WSW,248,6.7,11.2,21,0.00,,,0.00,WUHU216HW,2013-04-20 16:41:00,
2013-04-20 09:46:00,61.6,21.2,30.16,WNW,293,7.8,11.6,21,0.00,,,0.00,WUHU216HW,2013-04-20 16:46:00,
2013-04-20 09:51:00,61.4,21.0,30.16,West,270,8.5,12.5,21,0.00,,,0.00,WUHU216HW,2013-04-20 16:51:00,
2013-04-20 09:56:00,61.6,21.2,30.17,West,270,9.2,12.5,21,0.00,,,0.00,WUHU216HW,2013-04-20 16:56:00,
2013-04-20 10:01:00,61.7,21.3,30.16,WNW,293,5.1,13.2,21,0.00,,,0.00,WUHU216HW,2013-04-20 17:01:00,
2013-04-20 10:06:00,61.9,21.4,30.16,WNW,293,8.9,13.2,21,0.00,,,0.00,WUHU216HW,2013-04-20 17:06:00,
2013-04-20 10:11:00,61.9,21.4,30.17,WNW,293,8.1,12.1,21,0.00,,,0.00,WUHU216HW,2013-04-20 17:11:00,
2013-04-20 10:16:00,61.9,20.5,30.17,WNW,293,6.7,13.2,20,0.00,,,0.00,WUHU216HW,2013-04-20 17:16:00,
2013-04-20 10:21:00,62.1,21.6,30.17,NNW,338,6.3,13.2,21,0.00,,,0.00,WUHU216HW,2013-04-20 17:21:00,
2013-04-20 10:26:00,62.3,19.2,30.17,WNW,293,10.5,14.1,19,0.00,,,0.00,WUHU216HW,2013-04-20 17:26:00,
2013-04-20 10:31:00,62.5,21.9,30.16,NW,315,7.6,15.0,21,0.00,,,0.00,WUHU216HW,2013-04-20 17:31:00,
2013-04-20 10:36:00,62.6,22.1,30.17,West,270,4.7,15.0,21,0.00,,,0.00,WUHU216HW,2013-04-20 17:36:00,
2013-04-20 10:41:00,63.2,21.5,30.16,North,0,5.4,15.0,20,0.00,,,0.00,WUHU216HW,2013-04-20 17:41:00,
2013-04-20 10:46:00,63.2,19.9,30.16,NNW,338,8.5,13.2,19,0.00,,,0.00,WUHU216HW,2013-04-20 17:46:00,
2013-04-20 10:51:00,63.4,20.1,30.17,WNW,293,11.6,18.8,19,0.00,,,0.00,WUHU216HW,2013-04-20 17:51:00,
2013-04-20 10:56:00,63.4,20.1,30.16,West,270,5.6,18.8,19,0.00,,,0.00,WUHU216HW,2013-04-20 17:56:00,
2013-04-20 11:01:00,63.7,20.3,30.16,NW,315,11.9,12.8,19,0.00,,,0.00,WUHU216HW,2013-04-20 18:01:00,
2013-04-20 11:06:00,63.5,18.6,30.16,NW,315,10.5,14.5,18,0.00,,,0.00,WUHU216HW,2013-04-20 18:06:00,
2013-04-20 11:11:00,63.2,18.4,30.16,NW,315,9.2,14.5,18,0.00,,,0.00,WUHU216HW,2013-04-20 18:11:00,
2013-04-20 11:16:00,63.5,18.6,30.16,SW,225,8.9,14.1,18,0.00,,,0.00,WUHU216HW,2013-04-20 18:16:00,
2013-04-20 11:21:00,63.7,18.8,30.16,West,270,8.9,13.2,18,0.00,,,0.00,WUHU216HW,2013-04-20 18:21:00,
2013-04-20 11:26:00,63.5,18.6,30.16,WNW,293,6.5,13.2,18,0.00,,,0.00,WUHU216HW,2013-04-20 18:26:00,
2013-04-20 11:31:00,63.9,18.9,30.15,West,270,11.0,14.1,18,0.00,,,0.00,WUHU216HW,2013-04-20 18:31:00,
2013-04-20 11:36:00,64.1,17.5,30.15,WNW,293,6.3,14.1,17,0.00,,,0.00,WUHU216HW,2013-04-20 18:36:00,
2013-04-20 11:41:00,64.4,17.7,30.16,WNW,293,8.3,13.4,17,0.00,,,0.00,WUHU216HW,2013-04-20 18:41:00,
2013-04-20 11:46:00,64.1,17.5,30.15,West,270,7.8,14.3,17,0.00,,,0.00,WUHU216HW,2013-04-20 18:46:00,
2013-04-20 11:51:00,64.4,19.4,30.16,NW,315,6.7,14.3,18,0.00,,,0.00,WUHU216HW,2013-04-20 18:51:00,
2013-04-20 11:56:00,64.8,18.0,30.15,WNW,293,5.8,11.4,17,0.00,,,0.00,WUHU216HW,2013-04-20 18:56:00,
2013-04-20 12:01:00,65.3,20.1,30.15,WNW,293,6.5,14.3,18,0.00,,,0.00,WUHU216HW,2013-04-20 19:01:00,
2013-04-20 12:06:00,65.5,17.0,30.15,SSW,203,12.1,14.3,16,0.00,,,0.00,WUHU216HW,2013-04-20 19:06:00,
2013-04-20 12:11:00,65.2,15.1,30.16,NW,315,9.6,15.7,15,0.00,,,0.00,WUHU216HW,2013-04-20 19:11:00,
2013-04-20 12:16:00,65.0,16.6,30.15,NW,315,10.1,15.7,16,0.00,,,0.00,WUHU216HW,2013-04-20 19:16:00,
2013-04-20 12:21:00,65.0,16.6,30.15,NNW,338,11.2,15.2,16,0.00,,,0.00,WUHU216HW,2013-04-20 19:21:00,
2013-04-20 12:26:00,65.5,17.0,30.15,NNW,338,10.3,13.4,16,0.00,,,0.00,WUHU216HW,2013-04-20 19:26:00,
2013-04-20 12:31:00,65.7,15.6,30.15,West,270,8.3,15.0,15,0.00,,,0.00,WUHU216HW,2013-04-20 19:31:00,
2013-04-20 12:36:00,65.2,15.1,30.15,WNW,293,9.4,15.0,15,0.00,,,0.00,WUHU216HW,2013-04-20 19:36:00,
2013-04-20 12:41:00,64.8,16.5,30.15,NW,315,7.8,13.2,16,0.00,,,0.00,WUHU216HW,2013-04-20 19:41:00,
2013-04-20 12:46:00,65.2,15.1,30.14,NW,315,8.5,13.4,15,0.00,,,0.00,WUHU216HW,2013-04-20 19:46:00,
2013-04-20 12:51:00,65.7,15.6,30.14,WSW,248,17.4,17.4,15,0.00,,,0.00,WUHU216HW,2013-04-20 19:51:00,
2013-04-20 12:56:00,65.7,12.4,30.15,WNW,293,13.4,17.4,13,0.00,,,0.00,WUHU216HW,2013-04-20 19:56:00,
2013-04-20 13:01:00,65.5,12.2,30.14,West,270,10.5,13.4,13,0.00,,,0.00,WUHU216HW,2013-04-20 20:01:00,
2013-04-20 13:06:00,65.5,15.5,30.15,West,270,8.5,14.3,15,0.00,,,0.00,WUHU216HW,2013-04-20 20:06:00,
2013-04-20 13:11:00,65.9,12.6,30.15,WSW,248,8.7,14.3,13,0.00,,,0.00,WUHU216HW,2013-04-20 20:11:00,
2013-04-20 13:16:00,66.2,11.3,30.14,WNW,293,10.5,17.9,12,0.00,,,0.00,WUHU216HW,2013-04-20 20:16:00,
2013-04-20 13:21:00,66.1,12.7,30.15,NW,315,5.4,17.9,13,0.00,,,0.00,WUHU216HW,2013-04-20 20:21:00,
2013-04-20 13:26:00,65.7,12.4,30.14,WSW,248,7.4,14.1,13,0.00,,,0.00,WUHU216HW,2013-04-20 20:26:00,
2013-04-20 13:31:00,66.1,12.7,30.14,WSW,248,6.9,11.9,13,0.00,,,0.00,WUHU216HW,2013-04-20 20:31:00,
2013-04-20 13:36:00,66.6,13.1,30.14,NW,315,9.8,15.9,13,0.00,,,0.00,WUHU216HW,2013-04-20 20:36:00,
2013-04-20 13:41:00,66.4,13.0,30.14,NNW,338,6.3,15.9,13,0.00,,,0.00,WUHU216HW,2013-04-20 20:41:00,
2013-04-20 13:46:00,66.6,13.1,30.14,West,270,5.4,14.3,13,0.00,,,0.00,WUHU216HW,2013-04-20 20:46:00,
2013-04-20 13:51:00,66.8,16.5,30.14,NW,315,6.7,13.4,15,0.00,,,0.00,WUHU216HW,2013-04-20 20:51:00,
2013-04-20 13:56:00,67.0,18.2,30.14,SW,225,8.1,13.4,16,0.00,,,0.00,WUHU216HW,2013-04-20 20:56:00,
2013-04-20 14:01:00,67.3,13.8,30.14,NNW,338,6.7,11.9,13,0.00,,,0.00,WUHU216HW,2013-04-20 21:01:00,
2013-04-20 14:06:00,67.7,12.4,30.14,WNW,293,9.4,17.4,12,0.00,,,0.00,WUHU216HW,2013-04-20 21:06:00,
2013-04-20 14:11:00,66.8,8.6,30.14,NW,315,13.9,17.4,10,0.00,,,0.00,WUHU216HW,2013-04-20 21:11:00,
2013-04-20 14:16:00,66.2,9.7,30.14,WSW,248,7.8,17.0,11,0.00,,,0.00,WUHU216HW,2013-04-20 21:16:00,
2013-04-20 14:21:00,66.6,8.4,30.14,WNW,293,8.9,13.9,10,0.00,,,0.00,WUHU216HW,2013-04-20 21:21:00,
2013-04-20 14:26:00,66.6,10.0,30.13,West,270,10.3,12.8,11,0.00,,,0.00,WUHU216HW,2013-04-20 21:26:00,
2013-04-20 14:31:00,66.4,9.8,30.13,NNW,338,6.3,12.8,11,0.00,,,0.00,WUHU216HW,2013-04-20 21:31:00,
2013-04-20 14:36:00,66.4,9.8,30.13,WSW,248,6.9,13.4,11,0.00,,,0.00,WUHU216HW,2013-04-20 21:36:00,
2013-04-20 14:41:00,66.6,10.0,30.13,West,270,12.5,14.8,11,0.00,,,0.00,WUHU216HW,2013-04-20 21:41:00,
2013-04-20 14:46:00,66.6,10.0,30.14,WNW,293,7.6,17.2,11,0.00,,,0.00,WUHU216HW,2013-04-20 21:46:00,
2013-04-20 14:51:00,66.2,9.7,30.14,West,270,8.5,17.2,11,0.00,,,0.00,WUHU216HW,2013-04-20 21:51:00,
2013-04-20 14:56:00,66.2,8.1,30.13,West,270,5.4,15.7,10,0.00,,,0.00,WUHU216HW,2013-04-20 21:56:00,
2013-04-20 15:01:00,66.4,9.8,30.13,WNW,293,5.8,15.7,11,0.00,,,0.00,WUHU216HW,2013-04-20 22:01:00,
2013-04-20 15:06:00,66.6,10.0,30.13,WNW,293,12.1,14.5,11,0.00,,,0.00,WUHU216HW,2013-04-20 22:06:00,
2013-04-20 15:11:00,66.6,10.0,30.13,WSW,248,11.9,17.2,11,0.00,,,0.00,WUHU216HW,2013-04-20 22:11:00,
2013-04-20 15:16:00,66.4,11.4,30.13,West,270,6.9,17.2,12,0.00,,,0.00,WUHU216HW,2013-04-20 22:16:00,
2013-04-20 15:21:00,66.6,10.0,30.13,WSW,248,4.7,16.1,11,0.00,,,0.00,WUHU216HW,2013-04-20 22:21:00,
2013-04-20 15:26:00,66.4,9.8,30.13,NW,315,9.2,15.4,11,0.00,,,0.00,WUHU216HW,2013-04-20 22:26:00,
2013-04-20 15:31:00,66.1,9.5,30.13,NW,315,7.6,15.4,11,0.00,,,0.00,WUHU216HW,2013-04-20 22:31:00,
2013-04-20 15:36:00,66.2,9.7,30.13,NNW,338,5.8,15.4,11,0.00,,,0.00,WUHU216HW,2013-04-20 22:36:00,
2013-04-20 15:41:00,66.1,9.5,30.13,NW,315,14.3,17.9,11,0.00,,,0.00,WUHU216HW,2013-04-20 22:41:00,
2013-04-20 15:46:00,65.9,9.4,30.13,NW,315,6.9,17.9,11,0.00,,,0.00,WUHU216HW,2013-04-20 22:46:00,
2013-04-20 15:51:00,66.1,9.5,30.13,WSW,248,6.7,14.8,11,0.00,,,0.00,WUHU216HW,2013-04-20 22:51:00,
2013-04-20 15:56:00,66.2,9.7,30.13,NW,315,8.5,14.8,11,0.00,,,0.00,WUHU216HW,2013-04-20 22:56:00,
2013-04-20 16:01:00,65.9,9.4,30.13,NNW,338,7.6,11.4,11,0.00,,,0.00,WUHU216HW,2013-04-20 23:01:00,
2013-04-20 16:06:00,65.7,9.3,30.13,NW,315,7.6,15.4,11,0.00,,,0.00,WUHU216HW,2013-04-20 23:06:00,
2013-04-20 16:11:00,65.7,9.3,30.13,West,270,4.9,15.4,11,0.00,,,0.00,WUHU216HW,2013-04-20 23:11:00,
2013-04-20 16:16:00,65.5,9.1,30.13,NW,315,9.8,13.4,11,0.00,,,0.00,WUHU216HW,2013-04-20 23:16:00,
2013-04-20 16:21:00,65.5,9.1,30.13,West,270,10.5,16.1,11,0.00,,,0.00,WUHU216HW,2013-04-20 23:21:00,
2013-04-20 16:26:00,65.2,8.8,30.13,WSW,248,5.4,16.1,11,0.00,,,0.00,WUHU216HW,2013-04-20 23:26:00,
2013-04-20 16:31:00,65.2,8.8,30.13,WSW,248,6.3,11.4,11,0.00,,,0.00,WUHU216HW,2013-04-20 23:31:00,
2013-04-20 16:36:00,65.2,8.8,30.13,WNW,293,11.4,12.1,11,0.00,,,0.00,WUHU216HW,2013-04-20 23:36:00,
2013-04-20 16:41:00,64.8,8.6,30.13,NNW,338,12.1,12.1,11,0.00,,,0.00,WUHU216HW,2013-04-20 23:41:00,
2013-04-20 16:46:00,64.6,8.4,30.13,WSW,248,6.9,12.1,11,0.00,,,0.00,WUHU216HW,2013-04-20 23:46:00,
2013-04-20 16:51:00,64.4,9.8,30.13,West,270,8.3,12.1,12,0.00,,,0.00,WUHU216HW,2013-04-20 23:51:00,
2013-04-20 16:56:00,64.4,9.8,30.13,NNW,338,3.4,10.7,12,0.00,,,0.00,WUHU216HW,2013-04-20 23:56:00,
2013-04-20 17:01:00,64.6,10.0,30.13,WNW,293,6.9,12.1,12,0.00,,,0.00,WUHU216HW,2013-04-21 00:01:00,
2013-04-20 17:06:00,64.4,9.8,30.13,NW,315,6.5,12.1,12,0.00,,,0.00,WUHU216HW,2013-04-21 00:06:00,
2013-04-20 17:11:00,64.4,9.8,30.14,NW,315,10.7,12.5,12,0.00,,,0.00,WUHU216HW,2013-04-21 00:11:00,
2013-04-20 17:16:00,63.9,9.5,30.14,WSW,248,9.6,13.0,12,0.00,,,0.00,WUHU216HW,2013-04-21 00:16:00,
2013-04-20 17:21:00,63.4,9.1,30.14,WNW,293,6.9,13.0,12,0.00,,,0.00,WUHU216HW,2013-04-21 00:21:00,
2013-04-20 17:26:00,63.0,8.8,30.14,NNW,338,7.6,11.4,12,0.00,,,0.00,WUHU216HW,2013-04-21 00:26:00,
2013-04-20 17:31:00,62.6,8.6,30.14,NW,315,8.5,13.6,12,0.00,,,0.00,WUHU216HW,2013-04-21 00:31:00,
2013-04-20 17:36:00,62.3,9.8,30.14,NW,315,4.7,13.6,13,0.00,,,0.00,WUHU216HW,2013-04-21 00:36:00,
2013-04-20 17:41:00,62.3,9.8,30.13,WNW,293,5.4,9.2,13,0.00,,,0.00,WUHU216HW,2013-04-21 00:41:00,
2013-04-20 17:46:00,62.3,9.8,30.14,WNW,293,7.4,8.5,13,0.00,,,0.00,WUHU216HW,2013-04-21 00:46:00,
2013-04-20 17:51:00,61.9,9.6,30.14,NW,315,14.1,14.1,13,0.00,,,0.00,WUHU216HW,2013-04-21 00:51:00,
2013-04-20 17:56:00,61.6,9.3,30.14,WNW,293,10.1,14.1,13,0.00,,,0.00,WUHU216HW,2013-04-21 00:56:00,
2013-04-20 18:01:00,61.4,9.1,30.14,WNW,293,6.5,14.1,13,0.00,,,0.00,WUHU216HW,2013-04-21 01:01:00,
2013-04-20 18:06:00,61.2,8.9,30.14,West,270,4.9,11.9,13,0.00,,,0.00,WUHU216HW,2013-04-21 01:06:00,
2013-04-20 18:11:00,60.8,8.6,30.14,West,270,4.9,11.9,13,0.00,,,0.00,WUHU216HW,2013-04-21 01:11:00,
2013-04-20 18:16:00,60.7,10.1,30.14,WSW,248,1.8,11.9,14,0.00,,,0.00,WUHU216HW,2013-04-21 01:16:00,
2013-04-20 18:21:00,60.3,11.4,30.14,West,270,4.9,9.8,15,0.00,,,0.00,WUHU216HW,2013-04-21 01:21:00,
2013-04-20 18:26:00,59.8,10.9,30.15,West,270,6.7,8.3,15,0.00,,,0.00,WUHU216HW,2013-04-21 01:26:00,
2013-04-20 18:31:00,59.4,10.5,30.15,NW,315,5.4,8.5,15,0.00,,,0.00,WUHU216HW,2013-04-21 01:31:00,
2013-04-20 18:36:00,59.0,11.8,30.15,West,270,5.4,8.5,16,0.00,,,0.00,WUHU216HW,2013-04-21 01:36:00,
2013-04-20 18:41:00,58.7,11.5,30.15,NW,315,2.9,8.3,16,0.00,,,0.00,WUHU216HW,2013-04-21 01:41:00,
2013-04-20 18:46:00,58.5,11.3,30.15,WSW,248,3.4,8.3,16,0.00,,,0.00,WUHU216HW,2013-04-21 01:46:00,
2013-04-20 18:51:00,58.1,12.6,30.15,NNW,338,4.0,6.7,17,0.00,,,0.00,WUHU216HW,2013-04-21 01:51:00,
2013-04-20 18:56:00,57.6,12.3,30.15,West,270,7.2,8.5,17,0.00,,,0.00,WUHU216HW,2013-04-21 01:56:00,
2013-04-20 19:01:00,57.4,12.1,30.16,West,270,4.3,8.5,17,0.00,,,0.00,WUHU216HW,2013-04-21 02:01:00,
2013-04-20 19:06:00,57.1,11.8,30.15,NW,315,3.8,7.2,17,0.00,,,0.00,WUHU216HW,2013-04-21 02:06:00,
2013-04-20 19:11:00,56.7,11.5,30.16,WNW,293,0.9,6.9,17,0.00,,,0.00,WUHU216HW,2013-04-21 02:11:00,
2013-04-20 19:16:00,56.3,11.3,30.16,ESE,113,1.1,5.4,17,0.00,,,0.00,WUHU216HW,2013-04-21 02:16:00,
2013-04-20 19:21:00,56.0,11.0,30.16,West,270,4.3,5.4,17,0.00,,,0.00,WUHU216HW,2013-04-21 02:21:00,
2013-04-20 19:26:00,55.6,10.7,30.16,West,270,2.0,4.9,17,0.00,,,0.00,WUHU216HW,2013-04-21 02:26:00,
2013-04-20 19:31:00,55.1,11.7,30.16,WSW,248,3.4,4.9,18,0.00,,,0.00,WUHU216HW,2013-04-21 02:31:00,
2013-04-20 19:36:00,54.5,11.3,30.16,WSW,248,4.0,4.0,18,0.00,,,0.00,WUHU216HW,2013-04-21 02:36:00,
2013-04-20 19:41:00,54.0,10.8,30.17,WSW,248,3.4,4.3,18,0.00,,,0.00,WUHU216HW,2013-04-21 02:41:00,
2013-04-20 19:46:00,53.6,12.0,30.17,WSW,248,4.7,5.4,19,0.00,,,0.00,WUHU216HW,2013-04-21 02:46:00,
2013-04-20 19:51:00,53.1,13.1,30.17,West,270,3.6,5.4,20,0.00,,,0.00,WUHU216HW,2013-04-21 02:51:00,
2013-04-20 19:56:00,52.9,13.0,30.17,West,270,4.0,5.4,20,0.00,,,0.00,WUHU216HW,2013-04-21 02:56:00,
2013-04-20 20:01:00,52.6,12.6,30.17,WSW,248,2.7,5.4,20,0.00,,,0.00,WUHU216HW,2013-04-21 03:01:00,
2013-04-20 20:06:00,52.2,13.3,30.17,WSW,248,5.4,5.4,21,0.00,,,0.00,WUHU216HW,2013-04-21 03:06:00,
2013-04-20 20:11:00,51.8,13.0,30.17,WSW,248,3.4,5.6,21,0.00,,,0.00,WUHU216HW,2013-04-21 03:11:00,
2013-04-20 20:16:00,51.5,12.7,30.18,WSW,248,3.4,5.6,21,0.00,,,0.00,WUHU216HW,2013-04-21 03:16:00,
2013-04-20 20:21:00,51.3,12.6,30.18,SW,225,2.9,4.7,21,0.00,,,0.00,WUHU216HW,2013-04-21 03:21:00,
2013-04-20 20:26:00,50.8,13.1,30.18,SW,225,2.2,4.0,22,0.00,,,0.00,WUHU216HW,2013-04-21 03:26:00,
2013-04-20 20:31:00,50.4,12.8,30.18,SW,225,1.6,5.4,22,0.00,,,0.00,WUHU216HW,2013-04-21 03:31:00,
2013-04-20 20:36:00,50.0,12.4,30.18,SSW,203,0.9,5.6,22,0.00,,,0.00,WUHU216HW,2013-04-21 03:36:00,
2013-04-20 20:41:00,49.7,12.2,30.19,SW,225,2.5,5.6,22,0.00,,,0.00,WUHU216HW,2013-04-21 03:41:00,
2013-04-20 20:46:00,49.1,12.6,30.19,SW,225,2.0,3.4,23,0.00,,,0.00,WUHU216HW,2013-04-21 03:46:00,
2013-04-20 20:51:00,48.6,12.2,30.19,WSW,248,1.8,4.0,23,0.00,,,0.00,WUHU216HW,2013-04-21 03:51:00,
2013-04-20 20:56:00,48.2,11.8,30.19,SW,225,1.8,4.0,23,0.00,,,0.00,WUHU216HW,2013-04-21 03:56:00,
2013-04-20 21:01:00,47.9,12.4,30.19,West,270,1.8,3.4,24,0.00,,,0.00,WUHU216HW,2013-04-21 04:01:00,
2013-04-20 21:06:00,47.5,12.2,30.20,West,270,0.0,3.8,24,0.00,,,0.00,WUHU216HW,2013-04-21 04:06:00,
2013-04-20 21:11:00,47.2,11.9,30.20,East,90,2.5,3.8,24,0.00,,,0.00,WUHU216HW,2013-04-21 04:11:00,
2013-04-20 21:16:00,46.6,11.3,30.20,SW,225,0.0,2.5,24,0.00,,,0.00,WUHU216HW,2013-04-21 04:16:00,
2013-04-20 21:21:00,46.3,11.1,30.21,WSW,248,1.1,2.5,24,0.00,,,0.00,WUHU216HW,2013-04-21 04:21:00,
2013-04-20 21:26:00,45.7,11.5,30.20,WSW,248,0.9,5.1,25,0.00,,,0.00,WUHU216HW,2013-04-21 04:26:00,
2013-04-20 21:31:00,45.4,11.3,30.21,SSW,203,1.3,5.1,25,0.00,,,0.00,WUHU216HW,2013-04-21 04:31:00,
2013-04-20 21:36:00,45.0,10.9,30.21,SE,135,1.8,2.5,25,0.00,,,0.00,WUHU216HW,2013-04-21 04:36:00,
2013-04-20 21:41:00,44.5,11.3,30.21,SE,135,1.1,2.5,26,0.00,,,0.00,WUHU216HW,2013-04-21 04:41:00,
2013-04-20 21:46:00,43.9,11.8,30.21,SE,135,2.0,3.4,27,0.00,,,0.00,WUHU216HW,2013-04-21 04:46:00,
2013-04-20 21:51:00,43.6,11.4,30.21,South,180,2.0,3.4,27,0.00,,,0.00,WUHU216HW,2013-04-21 04:51:00,
2013-04-20 21:56:00,42.8,10.8,30.21,SSW,203,0.4,2.5,27,0.00,,,0.00,WUHU216HW,2013-04-21 04:56:00,
2013-04-20 22:01:00,42.1,11.2,30.21,West,270,1.1,2.5,28,0.00,,,0.00,WUHU216HW,2013-04-21 05:01:00,
2013-04-20 22:06:00,41.8,10.8,30.21,SSE,158,2.0,2.5,28,0.00,,,0.00,WUHU216HW,2013-04-21 05:06:00,
2013-04-20 22:11:00,41.4,10.5,30.21,SSW,203,1.6,2.0,28,0.00,,,0.00,WUHU216HW,2013-04-21 05:11:00,
2013-04-20 22:16:00,41.2,11.4,30.21,SSE,158,2.5,2.5,29,0.00,,,0.00,WUHU216HW,2013-04-21 05:16:00,
2013-04-20 22:21:00,41.0,11.2,30.21,SSE,158,2.5,3.4,29,0.00,,,0.00,WUHU216HW,2013-04-21 05:21:00,
2013-04-20 22:26:00,40.5,10.7,30.21,South,180,3.4,3.8,29,0.00,,,0.00,WUHU216HW,2013-04-21 05:26:00,
2013-04-20 22:31:00,40.0,10.2,30.21,South,180,3.4,4.3,29,0.00,,,0.00,WUHU216HW,2013-04-21 05:31:00,
2013-04-20 22:36:00,39.6,9.9,30.21,SSE,158,2.5,4.3,29,0.00,,,0.00,WUHU216HW,2013-04-21 05:36:00,
2013-04-20 22:41:00,39.2,9.5,30.21,South,180,1.8,4.3,29,0.00,,,0.00,WUHU216HW,2013-04-21 05:41:00,
2013-04-20 22:46:00,38.9,9.2,30.22,North,0,0.0,2.9,29,0.00,,,0.00,WUHU216HW,2013-04-21 05:46:00,
2013-04-20 22:51:00,38.3,9.6,30.21,SW,225,0.4,3.4,30,0.00,,,0.00,WUHU216HW,2013-04-21 05:51:00,
2013-04-20 22:56:00,37.8,9.8,30.21,SSE,158,2.7,3.4,31,0.00,,,0.00,WUHU216HW,2013-04-21 05:56:00,
2013-04-20 23:01:00,37.6,9.6,30.21,NE,45,1.1,3.8,31,0.00,,,0.00,WUHU216HW,2013-04-21 06:01:00,
2013-04-20 23:06:00,37.3,9.3,30.21,SW,225,2.2,3.8,31,0.00,,,0.00,WUHU216HW,2013-04-21 06:06:00,
2013-04-20 23:11:00,37.1,9.2,30.21,SE,135,1.8,3.6,31,0.00,,,0.00,WUHU216HW,2013-04-21 06:11:00,
2013-04-20 23:16:00,36.5,8.6,30.21,SSW,203,2.0,3.6,31,0.00,,,0.00,WUHU216HW,2013-04-21 06:16:00,
2013-04-20 23:21:00,36.4,9.2,30.21,South,180,2.0,4.3,32,0.00,,,0.00,WUHU216HW,2013-04-21 06:21:00,
2013-04-20 23:26:00,36.2,9.0,30.22,SE,135,1.8,4.3,32,0.00,,,0.00,WUHU216HW,2013-04-21 06:26:00,
2013-04-20 23:31:00,35.6,8.5,30.22,SSE,158,2.5,3.4,32,0.00,,,0.00,WUHU216HW,2013-04-21 06:31:00,
2013-04-20 23:36:00,35.3,8.2,30.22,SSE,158,1.1,2.9,32,0.00,,,0.00,WUHU216HW,2013-04-21 06:36:00,
2013-04-20 23:41:00,35.3,8.8,30.22,SSE,158,3.4,3.4,33,0.00,,,0.00,WUHU216HW,2013-04-21 06:41:00,
2013-04-20 23:46:00,34.9,8.6,30.22,South,180,1.8,3.4,33,0.00,,,0.00,WUHU216HW,2013-04-21 06:46:00,
2013-04-20 23:51:00,34.6,8.3,30.22,SSE,158,0.9,3.4,33,0.00,,,0.00,WUHU216HW,2013-04-21 06:51:00,
2013-04-20 23:56:00,34.4,8.7,30.22,SSE,158,1.6,2.2,34,0.00,,,0.00,WUHU216HW,2013-04-21 06:56:00,